Location: Bandys
(35.4750°N, 81.0830°W)
Time: 13:12:26
(UTC-05:00)

Daily predictions for brighter satellites

Satellite Brightness Start Highest point End
(mag) Time Altitude Azimuth Time Altitude Azimuth Time Altitude Azimuth
Cosmos 44 3.5 17:59:31 10° SSW 18:04:49 78° ESE 18:09:56 10° NNE
Cosmos 1300 3.3 18:02:50 10° NNE 18:06:21 34° E 18:09:52 10° SE
USA 116 4.3 18:04:41 10° N 18:07:42 45° WNW 18:10:40 10° SSW
Cosmos 372 Rocket 4.5 18:10:06 10° N 18:14:46 35° ENE 18:19:25 10° SE
Cosmos 2228 Rocket 3.6 18:12:28 10° NNW 18:16:51 64° W 18:21:14 10° S
Cosmos 2279 Rocket 4.4 18:11:45 10° N 18:17:35 41° ENE 18:23:24 10° SSE
Hubble Space Telescope 3.4 18:16:26 10° SW 18:18:53 15° SSW 18:21:21 10° SSE
Cosmos 371 Rocket 3.9 18:15:33 10° SSW 18:20:17 59° WNW 18:25:03 10° N
Cosmos 540 Rocket 3.5 18:15:22 10° SSW 18:20:32 84° ESE 18:25:44 10° NNE
MSX 4.0 18:16:58 10° S 18:22:40 80° WSW 18:28:26 10° NNW
USA 215 3.9 18:19:30 10° E 18:25:15 34° NNE 18:31:01 10° NNW
OAO 1 Rocket 4.5 18:20:15 10° W 18:25:34 87° S 18:30:38 11° E
Cosmos 2151 2.9 18:21:46 10° S 18:25:58 81° E 18:30:11 10° N
SMAP 4.3 18:22:26 10° S 18:26:54 47° W 18:31:24 10° NNW
Cosmos 1844 Rocket 3.4 18:21:24 10° NNW 18:26:57 59° WSW 18:32:26 10° S
Meteor 1-28 Rocket 3.2 18:27:45 10° NNE 18:31:25 56° E 18:35:04 10° S
Lacrosse 5 rocket 2.1 18:31:30 10° NNW 18:34:52 28° NE 18:37:21 16° E
Meteor 1-11 4.2 18:30:38 10° S 18:36:16 78° E 18:42:01 10° NNE
FREGAT/IRIS 3.9 18:34:54 10° ESE 18:37:14 20° ENE 18:39:35 10° NNE
CZ-4 R/B 4.3 18:40:32 10° SW 18:43:23 20° W 18:46:16 10° NW
Cosmos 1980 4.5 18:38:37 10° SW 18:44:10 53° WNW 18:49:43 10° NNE
Meteor 2-10 3.9 18:39:48 10° N 18:44:54 69° E 18:50:08 10° SSE
Cosmos 1151 Rocket 3.5 18:42:55 10° NNW 18:47:09 61° W 18:51:23 10° S
Cosmos 1805 Rocket 3.5 18:45:30 10° S 18:49:53 64° E 18:54:19 10° NNE
SKYMED 2 4.4 18:47:06 10° N 18:51:20 53° WNW 18:55:33 10° SSW
METEOR-M 4.2 18:48:01 10° SSE 18:53:14 56° ENE 18:58:29 10° N
Cosmos 1125 Rocket 4.0 18:49:05 10° NNW 18:54:14 64° WSW 18:59:20 10° S
Spot 2 Rocket 4.2 18:55:04 10° SE 18:59:24 29° ENE 19:03:44 10° N
Transit 2A Rocket 4.3 18:55:39 10° NNW 18:59:57 73° ENE 19:04:17 10° SSE
Cosmos 2333 Rocket 3.8 18:56:18 10° WSW 19:01:18 32° WNW 19:06:19 10° N
Cosmos 304 Rocket 3.8 18:56:38 10° SSW 19:01:26 80° WNW 19:06:16 10° NNE
SJ-6B 2.9 18:57:59 10° SSE 19:01:57 57° ENE 19:06:00 10° N
Abrixas 4.3 19:00:17 10° W 19:02:41 22° NNW 19:03:34 19° N
USA 229 DEB 4.0 18:56:58 10° S 19:03:22 45° ESE 19:07:08 24° NE
USA 229 4.0 18:57:05 10° S 19:03:29 44° ESE 19:07:11 24° ENE
Cosmos 2219 Rocket 4.4 19:02:24 10° WSW 19:06:46 23° WNW 19:11:08 10° N
Cosmos 1603 4.4 19:02:06 10° SSE 19:06:51 29° ESE 19:07:23 29° E
Sich 1 3.0 19:05:07 10° S 19:09:30 68° E 19:13:25 13° NNE
Cosmos 1703 3.5 19:05:53 10° SSW 19:09:45 69° W 19:13:38 10° N
Cosmos 1538 Rocket 3.9 19:04:56 10° SSW 19:10:11 79° ESE 19:14:48 14° NNE
Cosmos 1184 Rocket 2.8 19:09:00 10° S 19:12:12 60° ESE 19:12:12 60° ESE
Cosmos 1626 2.1 19:08:55 10° S 19:12:39 86° W 19:15:27 17° N
NOAA 12 4.1 19:07:48 10° SSE 19:13:02 86° WSW 19:18:19 10° NNW
Cosmos 1633 Rocket 2.9 19:11:07 10° S 19:15:30 70° E 19:18:22 21° NNE
Cosmos 923 Rocket 4.4 19:13:15 10° SSE 19:18:03 38° E 19:18:12 38° E
Cosmos 2278 Rocket 3.1 19:13:15 10° NNW 19:18:42 49° WSW 19:24:08 10° S
Iridium 4 Rocket 3.2 19:16:16 10° SSE 19:20:49 53° E 19:21:25 49° ENE
Cosmos 1455 3.2 19:19:02 10° N 19:24:26 32° SSE 19:26:37 10° SSE
Cosmos 1461 3.7 19:19:54 10° SW 19:23:59 47° WNW 19:26:00 25° N
Cosmos 1680 Rocket 4.5 19:21:09 10° SSE 19:24:20 29° SE 19:24:20 29° SE
Centaur AC-119 4.0 19:26:55 10° SSW 19:29:06 23° SSE 19:29:06 23° SSE
OTV 4 2.2 19:27:53 10° W 19:30:15 28° SW 19:30:15 28° SW
Resurs 01 Rocket 2.5 19:40:43 38° N 19:40:43 38° N 19:43:31 10° N
Cosmos 2237 Rocket 4.5 19:36:32 10° WSW 19:40:35 20° WNW 19:44:39 10° N
Cosmos 1707 Rocket 4.4 19:37:27 10° NNW 19:41:39 49° W 19:45:49 10° SSW
ALOS 2.2 19:40:17 10° S 19:44:56 84° WSW 19:49:38 10° NNW
SL-16 R/B 3.3 19:41:03 10° SW 19:46:21 41° WNW 19:50:50 14° N
Cosmos 1627 Rocket 4.3 19:44:18 10° S 19:50:24 65° E 19:50:24 65° E
Cosmos 773 Rocket 4.4 19:49:43 10° SSW 19:54:47 59° WNW 19:56:27 40° NNW
Milstar 3 4.3 19:52:35 10° WSW 19:58:08 28° SSW 20:02:22 18° SSE
Aureole 1 Rocket 4.1 19:54:56 10° SSW 19:59:52 60° WNW 20:03:16 27° N
USA 215 3.4 20:05:31 41° SSE 20:07:54 69° SW 20:14:27 10° NW
Lacrosse 5 rocket 3.5 20:10:41 10° WNW 20:13:10 24° WSW 20:13:10 24° WSW
Cosmos 2026 Rocket 4.5 20:17:28 10° SSW 20:22:09 52° SSW 20:22:09 52° SSW
